QPF
0.01 0.02 0.02 0.03 0.03 0.05 0.05 0.05 0.05 0.04 0.04 0.04 0.04 0.04 0.05 0.04 0.03 0.02 0.03 0.04 0.05 0.04 0.05 0.06 0.06 0.06 0.07 0.10 0.15 0.13 0.10 0.08 0.07 0.06 0.08 0.09 0.07 0.08 0.07 0.06 0.06 0.05 0.05
0.01 0.02 0.02 0.02 0.02 0.03 0.03 0.04 0.04 0.04 0.04 0.04 0.05 0.04 0.04 0.03 0.03 0.04 0.03 0.04 0.05 0.05 0.06 0.08 0.06 0.06 0.06 0.11 0.17 0.15 0.14 0.11 0.09 0.09 0.10 0.10 0.09 0.08 0.05 0.04 0.05 0.07 0.08
0.02 0.02 0.03 0.02 0.02 0.02 0.02 0.03 0.02 0.03 0.03 0.04 0.04 0.03 0.03 0.03 0.04 0.05 0.03 0.04 0.04 0.05 0.06 0.07 0.06 0.05 0.05 0.08 0.10 0.09 0.13 0.14 0.13 0.09 0.09 0.11 0.12 0.09 0.06 0.05 0.06 0.07 0.07
0.02 0.02 0.02 0.02 0.01 0.01 0.02 0.03 0.02 0.02 0.02 0.02 0.02 0.03 0.03 0.03 0.04 0.05 0.04 0.04 0.03 0.04 0.05 0.07 0.06 0.06 0.06 0.07 0.07 0.07 0.09 0.11 0.11 0.11 0.09 0.10 0.11 0.09 0.09 0.07 0.08 0.08 0.06
0.02 0.01 0.01 0.01 0.00 0.01 0.02 0.03 0.01 0.01 0.01 0.02 0.02 0.03 0.03 0.03 0.03 0.04 0.05 0.05 0.05 0.05 0.04 0.06 0.07 0.07 0.07 0.07 0.06 0.09 0.08 0.08 0.09 0.09 0.09 0.10 0.11 0.09 0.09 0.10 0.09 0.07 0.05
0.02 0.02 0.01 0.01 0.01 0.01 0.03 0.02 0.01 0.01 0.01 0.02 0.02 0.02 0.03 0.03 0.03 0.04 0.04 0.05 0.07 0.07 0.05 0.06 0.07 0.06 0.07 0.07 0.07 0.08 0.08 0.07 0.06 0.07 0.07 0.06 0.07 0.08 0.08 0.09 0.09 0.08 0.07
0.03 0.02 0.01 0.01 0.01 0.01 0.02 0.02 0.01 0.02 0.02 0.03 0.03 0.02 0.02 0.02 0.04 0.05 0.05 0.04 0.05 0.05 0.04 0.06 0.08 0.07 0.08 0.07 0.07 0.07 0.08 0.07 0.07 0.07 0.06 0.06 0.06 0.06 0.06 0.08 0.08 0.09 0.08
0.04 0.02 0.01 0.01 0.01 0.01 0.02 0.02 0.02 0.01 0.02 0.02 0.03 0.03 0.03 0.02 0.03 0.04 0.04 0.04 0.04 0.03 0.03 0.05 0.07 0.06 0.07 0.05 0.06 0.06 0.06 0.07 0.07 0.06 0.07 0.08 0.09 0.08 0.10 0.12 0.09 0.07 0.07
0.05 0.04 0.02 0.01 0.01 0.01 0.01 0.02 0.01 0.01 0.01 0.02 0.02 0.03 0.02 0.02 0.02 0.04 0.04 0.03 0.04 0.03 0.03 0.04 0.05 0.05 0.06 0.06 0.05 0.06 0.06 0.06 0.05 0.06 0.06 0.06 0.09 0.09 0.07 0.07 0.06 0.05 0.06
0.04 0.06 0.03 0.02 0.02 0.01 0.01 0.02 0.02 0.01 0.02 0.03 0.03 0.03 0.03 0.02 0.03 0.03 0.03 0.02 0.03 0.03 0.04 0.04 0.05 0.07 0.06 0.07 0.05 0.05 0.06 0.06 0.05 0.07 0.07 0.05 0.05 0.05 0.05 0.05 0.05 0.04 0.04
0.02 0.08 0.07 0.04 0.06 0.02 0.01 0.02 0.03 0.02 0.03 0.04 0.04 0.04 0.04 0.04 0.04 0.04 0.03 0.02 0.02 0.03 0.04 0.04 0.05 0.06 0.05 0.05 0.05 0.05 0.05 0.05 0.05 0.05 0.05 0.06 0.06 0.05 0.04 0.03 0.04 0.04 0.03
0.03 0.04 0.05 0.06 0.06 0.02 0.01 0.01 0.02 0.02 0.03 0.04 0.04 0.04 0.05 0.05 0.04 0.02 0.02 0.02 0.03 0.04 0.05 0.06 0.07 0.06 0.05 0.05 0.04 0.03 0.04 0.04 0.04 0.05 0.06 0.05 0.04 0.05 0.04 0.04 0.03 0.04 0.04
0.01 0.01 0.02 0.02 0.01 0.01 0.01 0.01 0.01 0.01 0.02 0.03 0.04 0.04 0.04 0.03 0.03 0.03 0.03 0.04 0.05 0.07 0.07 0.07 0.07 0.05 0.04 0.03 0.03 0.03 0.03 0.03 0.03 0.03 0.04 0.04 0.04 0.04 0.04 0.04 0.03 0.03 0.02
0.01 0.01 0.01 0.01 0.01 0.00 0.01 0.01 0.02 0.02 0.02 0.03 0.04 0.03 0.02 0.03 0.03 0.04 0.04 0.04 0.04 0.05 0.05 0.07 0.05 0.03 0.03 0.03 0.03 0.04 0.04 0.04 0.03 0.03 0.04 0.04 0.04 0.04 0.04 0.04 0.04 0.03 0.02
0.01 0.01 0.02 0.01 0.01 0.01 0.01 0.02 0.02 0.02 0.02 0.02 0.02 0.02 0.02 0.03 0.04 0.05 0.04 0.03 0.04 0.04 0.05 0.04 0.03 0.02 0.02 0.03 0.04 0.05 0.04 0.04 0.04 0.04 0.03 0.04 0.05 0.04 0.04 0.03 0.03 0.03 0.03
0.02 0.02 0.02 0.02 0.02 0.02 0.01 0.02 0.02 0.02 0.02 0.01 0.02 0.02 0.03 0.03 0.03 0.03 0.03 0.03 0.03 0.03 0.03 0.02 0.02 0.02 0.02 0.03 0.03 0.03 0.03 0.04 0.04 0.03 0.04 0.04 0.03 0.03 0.02 0.02 0.03 0.03 0.02
0.03 0.02 0.02 0.02 0.03 0.02 0.02 0.01 0.02 0.02 0.02 0.02 0.03 0.03 0.02 0.03 0.03 0.02 0.02 0.03 0.03 0.03 0.03 0.03 0.03 0.02 0.02 0.02 0.02 0.02 0.02 0.02 0.03 0.03 0.03 0.03 0.02 0.03 0.03 0.03 0.02 0.02 0.01
0.02 0.02 0.03 0.05 0.04 0.03 0.03 0.02 0.02 0.02 0.02 0.02 0.03 0.03 0.03 0.03 0.03 0.03 0.03 0.04 0.04 0.04 0.04 0.04 0.04 0.03 0.02 0.02 0.02 0.02 0.02 0.02 0.02 0.03 0.03 0.03 0.04 0.04 0.04 0.04 0.04 0.02 0.01
0.02 0.01 0.02 0.02 0.02 0.04 0.05 0.03 0.03 0.03 0.03 0.04 0.03 0.03 0.03 0.03 0.03 0.04 0.04 0.04 0.04 0.04 0.04 0.04 0.04 0.04 0.03 0.03 0.02 0.03 0.03 0.03 0.02 0.03 0.04 0.04 0.04 0.04 0.04 0.04 0.03 0.02 0.02
0.01 0.01 0.01 0.01 0.01 0.02 0.02 0.02 0.02 0.02 0.02 0.02 0.03 0.03 0.04 0.04 0.04 0.04 0.05 0.05 0.06 0.07 0.06 0.05 0.04 0.04 0.03 0.03 0.03 0.03 0.03 0.03 0.03 0.03 0.04 0.04 0.04 0.04 0.04 0.05 0.04 0.03 0.03
0.01 0.01 0.01 0.01 0.01 0.01 0.01 0.01 0.01 0.01 0.01 0.02 0.02 0.03 0.03 0.05 0.06 0.06 0.06 0.07 0.06 0.07 0.06 0.06 0.07 0.06 0.06 0.05 0.04 0.03 0.02 0.02 0.03 0.04 0.04 0.04 0.05 0.03 0.02 0.04 0.04 0.03 0.03
0.01 0.01 0.01 0.02 0.02 0.01 0.03 0.02 0.01 0.01 0.01 0.02 0.02 0.03 0.03 0.04 0.05 0.06 0.06 0.07 0.07 0.07 0.06 0.06 0.06 0.06 0.06 0.04 0.05 0.04 0.03 0.04 0.03 0.03 0.04 0.04 0.05 0.03 0.02 0.02 0.02 0.02 0.02
0.01 0.01 0.01 0.02 0.04 0.03 0.02 0.02 0.01 0.01 0.01 0.02 0.02 0.02 0.03 0.04 0.05 0.05 0.05 0.06 0.06 0.06 0.05 0.06 0.06 0.06 0.05 0.05 0.05 0.06 0.06 0.06 0.04 0.03 0.03 0.03 0.03 0.03 0.03 0.03 0.03 0.03 0.03
0.00 0.01 0.01 0.02 0.03 0.03 0.02 0.02 0.02 0.01 0.01 0.02 0.02 0.03 0.04 0.05 0.06 0.06 0.06 0.06 0.06 0.06 0.06 0.07 0.07 0.07 0.07 0.06 0.07 0.07 0.06 0.05 0.04 0.03 0.03 0.03 0.03 0.04 0.04 0.03 0.03 0.03 0.02
0.00 0.01 0.02 0.02 0.03 0.04 0.03 0.02 0.01 0.01 0.02 0.03 0.02 0.02 0.02 0.03 0.04 0.04 0.04 0.05 0.06 0.07 0.08 0.08 0.07 0.08 0.08 0.08 0.07 0.06 0.05 0.05 0.05 0.05 0.04 0.05 0.05 0.05 0.04 0.03 0.02 0.02 0.02
0.01 0.01 0.02 0.03 0.03 0.03 0.03 0.02 0.02 0.03 0.04 0.04 0.03 0.02 0.02 0.03 0.03 0.03 0.04 0.06 0.08 0.10 0.09 0.09 0.08 0.07 0.06 0.06 0.05 0.05 0.05 0.06 0.07 0.07 0.06 0.05 0.05 0.04 0.03 0.03 0.02 0.02 0.02
MSLP
1008.95 1009.37 1009.76 1010.11 1010.42 1010.73 1011.04 1011.37 1011.74 1012.14 1012.53 1012.89 1013.19 1013.39 1013.48 1013.47 1013.39 1013.28 1013.20 1013.19 1013.27 1013.45 1013.72 1014.06 1014.43 1014.79 1015.11 1015.40 1015.65 1015.88 1016.11 1016.38 1016.68 1017.02 1017.37 1017.71 1018.01 1018.25 1018.42 1018.51 1018.54 1018.55 1018.57
1008.62 1009.13 1009.59 1009.99 1010.33 1010.62 1010.90 1011.21 1011.55 1011.93 1012.32 1012.69 1012.99 1013.20 1013.29 1013.26 1013.15 1013.01 1012.90 1012.87 1012.95 1013.16 1013.48 1013.87 1014.29 1014.69 1015.04 1015.33 1015.56 1015.76 1015.96 1016.20 1016.50 1016.85 1017.25 1017.66 1018.05 1018.37 1018.62 1018.78 1018.87 1018.92 1018.97
1008.12 1008.72 1009.28 1009.75 1010.13 1010.43 1010.70 1010.98 1011.30 1011.66 1012.04 1012.42 1012.73 1012.95 1013.05 1013.02 1012.90 1012.74 1012.61 1012.56 1012.63 1012.84 1013.17 1013.59 1014.03 1014.45 1014.81 1015.09 1015.30 1015.47 1015.65 1015.87 1016.17 1016.55 1016.99 1017.47 1017.94 1018.37 1018.70 1018.95 1019.11 1019.22 1019.31
1007.44 1008.15 1008.80 1009.36 1009.80 1010.13 1010.41 1010.67 1010.97 1011.31 1011.69 1012.07 1012.41 1012.65 1012.77 1012.77 1012.65 1012.49 1012.35 1012.28 1012.33 1012.51 1012.83 1013.23 1013.67 1014.09 1014.44 1014.71 1014.90 1015.05 1015.21 1015.42 1015.72 1016.12 1016.60 1017.14 1017.69 1018.20 1018.63 1018.96 1019.21 1019.38 1019.52
1006.64 1007.43 1008.18 1008.83 1009.33 1009.71 1010.00 1010.27 1010.55 1010.88 1011.25 1011.65 1012.02 1012.30 1012.47 1012.51 1012.43 1012.28 1012.13 1012.03 1012.05 1012.19 1012.47 1012.84 1013.25 1013.64 1013.98 1014.24 1014.43 1014.57 1014.71 1014.91 1015.20 1015.60 1016.11 1016.68 1017.28 1017.85 1018.36 1018.77 1019.09 1019.34 1019.54
1005.75 1006.61 1007.45 1008.17 1008.75 1009.17 1009.48 1009.75 1010.02 1010.34 1010.73 1011.15 1011.55 1011.90 1012.13 1012.23 1012.20 1012.08 1011.93 1011.82 1011.80 1011.89 1012.11 1012.43 1012.80 1013.17 1013.49 1013.74 1013.93 1014.07 1014.21 1014.40 1014.68 1015.06 1015.55 1016.12 1016.72 1017.33 1017.88 1018.35 1018.74 1019.06 1019.33
1004.85 1005.74 1006.64 1007.43 1008.05 1008.51 1008.85 1009.11 1009.38 1009.70 1010.10 1010.54 1011.00 1011.41 1011.72 1011.90 1011.93 1011.86 1011.73 1011.61 1011.55 1011.60 1011.76 1012.02 1012.35 1012.69 1013.01 1013.27 1013.47 1013.62 1013.76 1013.94 1014.18 1014.53 1014.97 1015.49 1016.07 1016.66 1017.22 1017.74 1018.18 1018.57 1018.92
1003.98 1004.88 1005.80 1006.62 1007.28 1007.76 1008.11 1008.37 1008.64 1008.96 1009.36 1009.84 1010.34 1010.82 1011.22 1011.48 1011.59 1011.58 1011.48 1011.36 1011.28 1011.28 1011.40 1011.62 1011.92 1012.25 1012.57 1012.85 1013.08 1013.25 1013.40 1013.56 1013.77 1014.05 1014.42 1014.87 1015.38 1015.92 1016.46 1016.99 1017.47 1017.92 1018.35
1003.18 1004.06 1004.97 1005.80 1006.46 1006.95 1007.29 1007.55 1007.80 1008.12 1008.53 1009.03 1009.58 1010.12 1010.59 1010.94 1011.13 1011.18 1011.13 1011.03 1010.95 1010.93 1011.01 1011.21 1011.49 1011.83 1012.17 1012.49 1012.76 1012.97 1013.13 1013.28 1013.45 1013.66 1013.94 1014.29 1014.71 1015.18 1015.68 1016.20 1016.71 1017.22 1017.73
1002.50 1003.32 1004.20 1005.00 1005.65 1006.11 1006.44 1006.68 1006.92 1007.23 1007.64 1008.15 1008.73 1009.32 1009.86 1010.27 1010.54 1010.66 1010.66 1010.59 1010.52 1010.50 1010.58 1010.77 1011.06 1011.41 1011.80 1012.16 1012.48 1012.74 1012.93 1013.08 1013.21 1013.36 1013.55 1013.81 1014.13 1014.52 1014.96 1015.46 1015.99 1016.55 1017.12
1001.94 1002.71 1003.53 1004.27 1004.88 1005.32 1005.61 1005.83 1006.05 1006.34 1006.74 1007.25 1007.85 1008.47 1009.04 1009.52 1009.84 1010.02 1010.07 1010.05 1010.00 1010.00 1010.08 1010.28 1010.59 1010.97 1011.40 1011.82 1012.20 1012.52 1012.75 1012.91 1013.03 1013.14 1013.26 1013.43 1013.67 1013.98 1014.38 1014.85 1015.38 1015.97 1016.60
1001.53 1002.23 1002.98 1003.67 1004.22 1004.62 1004.89 1005.08 1005.28 1005.56 1005.94 1006.43 1007.02 1007.64 1008.23 1008.73 1009.10 1009.32 1009.41 1009.42 1009.41 1009.42 1009.52 1009.74 1010.06 1010.48 1010.95 1011.42 1011.86 1012.23 1012.51 1012.71 1012.84 1012.93 1013.02 1013.14 1013.32 1013.58 1013.93 1014.38 1014.91 1015.52 1016.18
1001.27 1001.91 1002.60 1003.22 1003.72 1004.08 1004.33 1004.51 1004.69 1004.95 1005.31 1005.78 1006.34 1006.94 1007.52 1008.01 1008.39 1008.63 1008.75 1008.78 1008.79 1008.82 1008.93 1009.14 1009.48 1009.91 1010.40 1010.92 1011.40 1011.83 1012.16 1012.40 1012.57 1012.67 1012.77 1012.87 1013.03 1013.27 1013.60 1014.02 1014.55 1015.15 1015.81
1001.16 1001.76 1002.39 1002.96 1003.42 1003.76 1003.99 1004.16 1004.34 1004.59 1004.92 1005.36 1005.88 1006.43 1006.97 1007.44 1007.80 1008.03 1008.15 1008.19 1008.20 1008.23 1008.32 1008.53 1008.84 1009.26 1009.75 1010.28 1010.79 1011.25 1011.63 1011.93 1012.15 1012.30 1012.43 1012.56 1012.74 1012.97 1013.30 1013.71 1014.22 1014.80 1015.44
1001.19 1001.77 1002.37 1002.91 1003.34 1003.66 1003.90 1004.08 1004.27 1004.50 1004.81 1005.21 1005.68 1006.17 1006.65 1007.07 1007.38 1007.59 1007.68 1007.70 1007.69 1007.69 1007.76 1007.92 1008.19 1008.56 1009.01 1009.51 1010.01 1010.49 1010.91 1011.26 1011.54 1011.76 1011.96 1012.15 1012.36 1012.62 1012.95 1013.36 1013.85 1014.40 1014.99
1001.35 1001.93 1002.51 1003.03 1003.46 1003.79 1004.04 1004.24 1004.44 1004.68 1004.97 1005.33 1005.74 1006.16 1006.57 1006.92 1007.17 1007.32 1007.38 1007.36 1007.31 1007.26 1007.26 1007.35 1007.54 1007.83 1008.20 1008.64 1009.11 1009.57 1010.01 1010.40 1010.74 1011.04 1011.31 1011.57 1011.85 1012.15 1012.51 1012.92 1013.38 1013.89 1014.44
1001.60 1002.20 1002.78 1003.30 1003.73 1004.08 1004.35 1004.59 1004.81 1005.05 1005.33 1005.65 1006.00 1006.35 1006.68 1006.95 1007.13 1007.23 1007.23 1007.16 1007.05 1006.94 1006.86 1006.86 1006.94 1007.12 1007.39 1007.74 1008.13 1008.55 1008.98 1009.39 1009.78 1010.15 1010.50 1010.84 1011.19 1011.54 1011.93 1012.35 1012.80 1013.27 1013.76
1001.92 1002.54 1003.12 1003.65 1004.09 1004.46 1004.77 1005.03 1005.28 1005.52 1005.78 1006.06 1006.36 1006.64 1006.89 1007.09 1007.20 1007.23 1007.18 1007.06 1006.89 1006.72 1006.56 1006.45 1006.42 1006.48 1006.63 1006.86 1007.16 1007.52 1007.92 1008.33 1008.75 1009.17 1009.58 1009.99 1010.40 1010.82 1011.24 1011.67 1012.11 1012.56 1013.02
1002.27 1002.90 1003.48 1004.01 1004.47 1004.86 1005.19 1005.47 1005.73 1005.97 1006.22 1006.46 1006.70 1006.92 1007.10 1007.22 1007.28 1007.26 1007.16 1006.99 1006.78 1006.55 1006.32 1006.13 1005.99 1005.94 1005.97 1006.08 1006.29 1006.57 1006.91 1007.31 1007.74 1008.18 1008.65 1009.11 1009.57 1010.03 1010.48 1010.93 1011.38 1011.82 1012.26
1002.61 1003.23 1003.81 1004.33 1004.79 1005.19 1005.53 1005.82 1006.08 1006.32 1006.53 1006.74 1006.92 1007.07 1007.19 1007.26 1007.27 1007.20 1007.08 1006.89 1006.65 1006.38 1006.11 1005.85 1005.64 1005.50 1005.43 1005.45 1005.57 1005.77 1006.06 1006.42 1006.84 1007.30 1007.78 1008.28 1008.77 1009.27 1009.75 1010.21 1010.67 1011.12 1011.57
1002.92 1003.52 1004.08 1004.58 1005.02 1005.41 1005.75 1006.03 1006.28 1006.49 1006.67 1006.83 1006.95 1007.05 1007.11 1007.13 1007.09 1007.00 1006.86 1006.66 1006.42 1006.15 1005.86 1005.59 1005.34 1005.14 1005.01 1004.97 1005.02 1005.17 1005.41 1005.73 1006.13 1006.58 1007.06 1007.57 1008.08 1008.59 1009.09 1009.57 1010.05 1010.51 1010.97
1003.20 1003.77 1004.29 1004.76 1005.17 1005.54 1005.84 1006.10 1006.32 1006.49 1006.62 1006.72 1006.79 1006.82 1006.82 1006.79 1006.72 1006.61 1006.46 1006.27 1006.05 1005.80 1005.53 1005.27 1005.03 1004.83 1004.68 1004.62 1004.64 1004.75 1004.96 1005.25 1005.62 1006.05 1006.52 1007.02 1007.53 1008.04 1008.54 1009.03 1009.52 1010.00 1010.48
1003.50 1004.01 1004.48 1004.90 1005.27 1005.59 1005.85 1006.07 1006.24 1006.35 1006.43 1006.46 1006.46 1006.42 1006.36 1006.27 1006.16 1006.03 1005.88 1005.70 1005.51 1005.29 1005.07 1004.86 1004.66 1004.49 1004.38 1004.33 1004.35 1004.46 1004.66 1004.94 1005.28 1005.69 1006.13 1006.61 1007.10 1007.59 1008.09 1008.58 1009.07 1009.55 1010.05
1003.82 1004.28 1004.68 1005.04 1005.35 1005.62 1005.83 1005.99 1006.09 1006.15 1006.15 1006.11 1006.02 1005.91 1005.78 1005.63 1005.47 1005.30 1005.13 1004.96 1004.79 1004.63 1004.46 1004.31 1004.18 1004.08 1004.03 1004.03 1004.09 1004.22 1004.43 1004.70 1005.03 1005.41 1005.83 1006.28 1006.74 1007.20 1007.67 1008.14 1008.62 1009.11 1009.61
1004.22 1004.61 1004.95 1005.24 1005.48 1005.68 1005.83 1005.92 1005.96 1005.94 1005.86 1005.74 1005.57 1005.37 1005.15 1004.92 1004.70 1004.48 1004.28 1004.11 1003.95 1003.81 1003.70 1003.62 1003.56 1003.54 1003.56 1003.63 1003.75 1003.93 1004.15 1004.44 1004.76 1005.12 1005.51 1005.92 1006.34 1006.77 1007.21 1007.65 1008.11 1008.58 1009.06
1004.72 1005.03 1005.29 1005.51 1005.68 1005.81 1005.89 1005.91 1005.88 1005.78 1005.63 1005.42 1005.16 1004.87 1004.56 1004.24 1003.94 1003.65 1003.40 1003.19 1003.03 1002.91 1002.83 1002.79 1002.80 1002.85 1002.95 1003.08 1003.26 1003.48 1003.74 1004.03 1004.35 1004.70 1005.06 1005.43 1005.82 1006.21 1006.61 1007.02 1007.44 1007.89 1008.35
Thickness
5850 5849 5846 5843 5836 5831 5826 5822 5819 5816 5814 5810 5807 5804 5802 5802 5801 5799 5797 5796 5794 5792 5790 5789 5787 5785 5783 5781 5781 5778 5776 5774 5775 5770 5767 5769 5773 5772 5771 5770 5768 5767 5766
5847 5846 5844 5842 5836 5830 5826 5823 5819 5817 5814 5811 5809 5807 5805 5803 5801 5800 5797 5796 5794 5792 5791 5787 5785 5784 5781 5779 5778 5776 5772 5771 5772 5766 5759 5756 5759 5764 5768 5767 5765 5764 5763
5846 5844 5843 5841 5837 5831 5828 5825 5821 5818 5815 5813 5811 5808 5805 5802 5799 5797 5795 5795 5794 5791 5789 5787 5785 5783 5780 5777 5776 5773 5769 5766 5767 5767 5760 5751 5746 5751 5758 5762 5762 5762 5760
5852 5847 5843 5841 5838 5835 5832 5827 5822 5819 5815 5813 5809 5805 5800 5796 5796 5796 5795 5794 5792 5790 5788 5786 5783 5781 5779 5776 5774 5773 5770 5766 5762 5763 5762 5759 5754 5746 5744 5752 5756 5757 5756
5855 5850 5846 5842 5841 5838 5833 5828 5823 5818 5816 5813 5809 5804 5801 5799 5798 5796 5794 5792 5790 5789 5786 5784 5781 5778 5776 5774 5772 5771 5768 5766 5761 5759 5758 5756 5754 5752 5744 5740 5745 5749 5751
5857 5851 5849 5844 5841 5838 5834 5828 5821 5816 5814 5811 5808 5803 5799 5797 5794 5792 5790 5789 5788 5786 5784 5782 5779 5777 5774 5772 5770 5768 5765 5763 5761 5759 5757 5754 5751 5747 5745 5740 5740 5740 5745
5857 5851 5846 5841 5838 5835 5831 5826 5819 5814 5812 5809 5806 5803 5800 5797 5793 5791 5789 5787 5785 5783 5782 5781 5777 5775 5773 5771 5768 5765 5763 5760 5758 5756 5755 5754 5752 5751 5747 5741 5737 5737 5739
5858 5852 5847 5842 5837 5834 5830 5824 5817 5813 5810 5807 5804 5802 5799 5797 5794 5791 5789 5786 5784 5783 5782 5778 5775 5773 5771 5769 5766 5763 5761 5759 5757 5755 5753 5751 5751 5750 5746 5741 5735 5730 5731
5854 5850 5847 5842 5837 5833 5828 5823 5816 5811 5809 5806 5803 5800 5798 5795 5792 5790 5788 5785 5783 5781 5778 5775 5772 5770 5767 5765 5763 5760 5757 5756 5754 5752 5751 5748 5748 5747 5745 5742 5738 5729 5722
5852 5848 5845 5841 5837 5834 5828 5824 5817 5811 5808 5805 5801 5798 5796 5794 5790 5788 5785 5782 5780 5778 5774 5771 5768 5765 5763 5761 5759 5756 5754 5752 5750 5749 5746 5744 5744 5743 5741 5739 5736 5732 5725
5847 5844 5840 5838 5834 5830 5826 5820 5814 5810 5806 5802 5799 5796 5793 5791 5788 5785 5782 5780 5777 5774 5770 5767 5764 5761 5758 5756 5753 5752 5750 5748 5746 5745 5742 5740 5739 5737 5736 5735 5732 5729 5725
5844 5840 5837 5833 5828 5824 5821 5817 5812 5808 5804 5800 5797 5793 5790 5786 5783 5781 5778 5776 5773 5770 5766 5764 5760 5757 5754 5752 5749 5747 5746 5743 5741 5739 5737 5735 5734 5732 5730 5728 5726 5724 5722
5837 5835 5831 5826 5823 5820 5817 5813 5810 5806 5802 5798 5793 5789 5786 5782 5779 5777 5775 5772 5769 5765 5762 5759 5755 5753 5750 5748 5745 5743 5741 5739 5737 5735 5732 5730 5727 5724 5723 5722 5720 5718 5718
5830 5828 5824 5820 5819 5815 5812 5809 5806 5804 5800 5795 5789 5784 5782 5779 5776 5773 5771 5768 5764 5760 5757 5754 5752 5749 5747 5744 5741 5738 5736 5734 5732 5730 5727 5725 5723 5720 5718 5716 5714 5712 5710
5823 5821 5816 5814 5812 5809 5806 5804 5801 5799 5796 5790 5785 5781 5778 5775 5772 5769 5766 5763 5759 5757 5753 5750 5747 5745 5742 5740 5736 5734 5731 5728 5726 5724 5722 5720 5718 5716 5714 5712 5708 5706 5703
5815 5814 5812 5809 5806 5802 5800 5798 5796 5794 5790 5785 5781 5777 5774 5770 5767 5763 5761 5757 5754 5751 5748 5744 5741 5739 5738 5734 5731 5728 5725 5723 5720 5717 5716 5715 5713 5711 5708 5706 5703 5700 5697
5811 5809 5808 5805 5802 5800 5797 5792 5790 5788 5784 5778 5775 5772 5768 5764 5761 5759 5755 5751 5748 5745 5742 5739 5736 5732 5730 5728 5725 5722 5719 5717 5714 5712 5710 5710 5709 5706 5703 5699 5696 5694 5692
5808 5806 5803 5800 5799 5797 5793 5789 5785 5780 5776 5771 5767 5764 5761 5758 5755 5752 5748 5745 5742 5739 5736 5733 5731 5728 5725 5722 5719 5716 5714 5711 5710 5708 5706 5703 5701 5700 5696 5693 5690 5688 5687
5805 5803 5802 5798 5795 5791 5786 5781 5776 5772 5768 5763 5760 5758 5755 5751 5748 5745 5742 5740 5736 5733 5731 5729 5726 5723 5720 5716 5713 5710 5708 5706 5704 5703 5701 5699 5696 5693 5690 5687 5685 5683 5682
5799 5796 5795 5792 5787 5783 5779 5773 5768 5763 5760 5757 5755 5752 5749 5745 5741 5738 5736 5733 5730 5727 5725 5723 5721 5718 5715 5711 5708 5704 5703 5700 5698 5697 5696 5693 5691 5688 5685 5682 5679 5676 5675
5791 5789 5786 5781 5778 5776 5771 5764 5760 5756 5754 5752 5748 5745 5741 5738 5735 5732 5729 5726 5723 5720 5718 5716 5715 5713 5710 5706 5702 5698 5696 5694 5692 5691 5689 5687 5685 5682 5680 5677 5675 5672 5670
5780 5779 5774 5770 5769 5766 5760 5754 5750 5750 5747 5744 5739 5736 5733 5730 5728 5724 5721 5718 5715 5712 5711 5709 5708 5706 5704 5701 5697 5692 5688 5687 5685 5684 5683 5681 5678 5676 5674 5671 5670 5667 5664
5769 5767 5763 5759 5757 5755 5751 5745 5743 5741 5738 5734 5729 5727 5725 5722 5719 5716 5713 5710 5708 5706 5704 5702 5700 5698 5697 5694 5690 5685 5682 5679 5676 5676 5675 5673 5671 5669 5668 5666 5664 5661 5659
5760 5758 5753 5749 5745 5744 5742 5739 5735 5733 5728 5723 5720 5718 5716 5713 5711 5709 5706 5703 5701 5699 5697 5695 5692 5689 5687 5684 5681 5677 5674 5671 5669 5668 5666 5664 5663 5662 5661 5660 5657 5655 5654
5749 5747 5742 5739 5736 5734 5732 5729 5726 5723 5718 5715 5712 5710 5709 5707 5703 5701 5698 5696 5694 5691 5687 5686 5684 5680 5677 5674 5671 5668 5666 5664 5661 5658 5658 5657 5656 5655 5655 5654 5653 5651 5649
5739 5736 5732 5729 5726 5724 5721 5719 5717 5713 5708 5705 5704 5702 5700 5698 5695 5692 5689 5686 5685 5682 5680 5678 5675 5673 5669 5665 5662 5659 5657 5655 5653 5651 5651 5651 5651 5650 5649 5648 5647 5646 5644